Weather History for Terre Haute, IN

Change the Weather History Date:

Sunday, May 19, 2013

  Actual Average Record
Temperature  
Mean Temperature 73 °F 64 °F  
Max Temperature 86 °F 75 °F 91 °F (1998)
Min Temperature 59 °F 53 °F 34 °F (2002)
Degree Days  
Heating Degree Days 0 4  
Month to date heating degree days 67 104  
Since 1 July heating degree days 5250 5324  
Cooling Degree Days 8 3  
Month to date cooling degree days 43 30  
Year to date cooling degree days 50 45  
Growing Degree Days 22 (Base 50)    
Moisture  
Dew Point 63 °F    
Average Humidity 76    
Maximum Humidity 100    
Minimum Humidity 51    
Precipitation  
Precipitation 0.00 in 0.24 in 1.30 in (1987)
Month to date precipitation 2.35 4.37  
Year to date precipitation 19.01 16.18  
Sea Level Pressure  
Sea Level Pressure 29.92 in    
Wind  
Wind Speed 6 mph (SSE)    
Max Wind Speed 16 mph    
Max Gust Speed 20 mph    
Visibility 4 miles    
Events Fog    
T = Trace of Precipitation, MM = Missing Value Source: NWS Daily Summary

Daily Weather History Graph

Daily Weather History Graph

Search for Another Location

Airport:

Trip Planner

Search our weather history database for the weather conditions in past years. The results will help you decide how hot, cold, wet, or windy it might be!

Date:

Astronomy

May. 19, 2013 Rise Set
Actual Time 6:31 AM EDT 9:00 PM EDT
Civil Twilight 6:01 AM EDT 9:30 PM EDT
Nautical Twilight 5:23 AM EDT 10:09 PM EDT
Astronomical Twilight 4:40 AM EDT 10:51 PM EDT
Moon 3:05 PM EDT (5/19) 2:53 AM EDT (5/19)
Length of Visible Light 15h 29m
Length of Day
14h 28m
Waxing Gibbous, 65% of the Moon is Illuminated
May 19
Waxing Gibbous
May 25
Full
May 31
Last Quarter
Jun 8
New
Jun 16
First Quarter

Hourly Weather History & Observations

Time (EDT) Temp. Heat Index Dew Point Humidity Pressure Visibility Wind Dir Wind Speed Gust Speed Precip Events Conditions
1:53 AM 63.0 °F - 61.0 °F 93% 29.94 in 6.0 mi ESE 3.5 mph - N/A   Clear
2:53 AM 62.1 °F - 60.1 °F 93% 29.94 in 4.0 mi Calm Calm - N/A   Clear
3:10 AM 62.6 °F - 60.8 °F 94% 29.95 in 1.8 mi Calm Calm - N/A   Clear
3:19 AM 62.6 °F - 60.8 °F 94% 29.96 in 0.8 mi Calm Calm - N/A   Clear
3:23 AM 62.6 °F - 60.8 °F 94% 29.96 in 2.0 mi Calm Calm - N/A   Clear
3:36 AM 62.6 °F - 60.8 °F 94% 29.96 in 3.0 mi Calm Calm - N/A   Clear
3:53 AM 62.1 °F - 60.1 °F 93% 29.95 in 3.0 mi Calm Calm - N/A   Clear
4:53 AM 61.0 °F - 59.0 °F 93% 29.95 in 3.0 mi ENE 3.5 mph - N/A   Clear
4:57 AM 60.8 °F - 59.0 °F 94% 29.95 in 1.8 mi ENE 3.5 mph - N/A   Clear
5:06 AM 60.8 °F - 59.0 °F 94% 29.95 in 3.0 mi Calm Calm - N/A   Clear
5:44 AM 59.0 °F - 57.2 °F 94% 29.94 in 2.5 mi East 4.6 mph - 0.01 in   Clear
6:11 AM 60.8 °F - 59.0 °F 94% 29.95 in 1.0 mi Calm Calm - N/A   Clear
6:15 AM 60.8 °F - 59.0 °F 94% 29.95 in 0.5 mi Calm Calm - N/A Fog Fog
6:24 AM 60.8 °F - 59.0 °F 94% 29.95 in 0.2 mi Calm Calm - N/A Fog Fog
6:53 AM 59.0 °F - 59.0 °F 100% 29.96 in 0.2 mi Calm Calm - N/A Fog Fog
7:23 AM 60.8 °F - 60.8 °F 100% 29.97 in 0.2 mi Calm Calm - N/A Fog Fog
7:38 AM 62.6 °F - 62.6 °F 100% 29.97 in 0.5 mi Calm Calm - N/A Fog Fog
7:48 AM 62.6 °F - 62.6 °F 100% 29.97 in 1.0 mi Calm Calm - N/A   Mist
8:03 AM 64.4 °F - 62.6 °F 94% 29.97 in 3.0 mi Calm Calm - N/A   Clear
8:53 AM 68.0 °F - 64.9 °F 90% 29.95 in 5.0 mi SE 4.6 mph - N/A   Clear
9:53 AM 73.9 °F - 66.0 °F 76% 29.96 in 7.0 mi SE 5.8 mph - N/A   Clear
10:53 AM 77.0 °F - 64.9 °F 66% 29.96 in 10.0 mi South 5.8 mph - N/A   Clear
11:53 AM 79.0 °F - 64.0 °F 60% 29.95 in 10.0 mi SE 8.1 mph - N/A   Clear
12:53 PM 81.0 °F 82.7 °F 64.9 °F 58% 29.93 in 10.0 mi South 8.1 mph - N/A   Clear
1:53 PM 82.9 °F 84.4 °F 64.0 °F 53% 29.90 in 10.0 mi SE 8.1 mph - N/A   Clear
3:53 PM 86.0 °F 88.2 °F 66.0 °F 51% 29.88 in 10.0 mi SSW 11.5 mph - N/A   Clear
4:53 PM 84.0 °F 86.5 °F 66.9 °F 56% 29.86 in 10.0 mi South 11.5 mph - N/A   Scattered Clouds
5:53 PM 84.9 °F 88.2 °F 68.0 °F 57% 29.84 in 10.0 mi South 9.2 mph - N/A   Clear
6:53 PM 84.0 °F 87.0 °F 68.0 °F 58% 29.83 in 7.0 mi South 12.7 mph - N/A   Partly Cloudy
7:53 PM 82.0 °F 84.9 °F 68.0 °F 62% 29.82 in 6.0 mi South 12.7 mph 18.4 mph N/A   Haze
8:53 PM 80.1 °F 82.9 °F 69.1 °F 69% 29.83 in 5.0 mi SSE 8.1 mph - N/A   Haze
9:53 PM 78.1 °F - 69.1 °F 74% 29.84 in 6.0 mi SSE 6.9 mph - N/A   Haze
10:53 PM 77.0 °F - 70.0 °F 79% 29.85 in 5.0 mi SSE 6.9 mph - N/A   Haze
11:53 PM 75.9 °F - 70.0 °F 82% 29.86 in 5.0 mi South 6.9 mph - N/A   Haze